LILACSAT 2

Last updated on Sat Feb 09 2019 03:03:27 GMT+0000 (Coordinated Universal Time)

1 40908U 15049K 19039.89450101 .00000023 00000-0 49085-5 0 9996 2 40908 97.4749 42.8774 0014547 294.8643 129.7250 15.13694297187179
UTC large
Height (km)
Speed (km/s)
/
Latitude / Longitude
Inclination (degrees)
Orbital Period (minutes)
Azimuth
Elevation
Range (km)
Doppler Factor

Next 0 passes for location: London (51.5072 / 0.1276)

Sorry there are no passes over London.